IU1OPQ-3 Weather Reports


time (UTC)temp
C
wind
direction
speed
KPH
gust
KPH
rain 1hr
cm
rain 24hr
cm
rain mn
cm
humidity
%
barometer
mb
20260508030000 12 213 4.8 14.5 0.00 0.00 0.00 82 1014.0
20260508024500 12 263 3.2 12.9 0.00 0.00 0.00 79 1013.9
20260508023002 12 210 14.5 14.5 0.00 0.00 0.00 81 1013.8
20260508021501 12 214 8.0 9.7 0.00 0.00 0.00 82 1013.9
20260508020001 12 226 4.8 8.0 0.00 0.00 0.00 80 1013.8
20260508014501 12 256 4.8 9.7 0.00 0.00 0.00 80 1013.9
20260508013001 12 220 4.8 8.0 0.00 0.00 0.00 82 1013.9
20260508011501 12 207 3.2 9.7 0.00 0.00 0.00 82 1013.9
20260508010001 12 222 4.8 8.0 0.00 0.00 0.00 79 1013.9
20260508004501 13 211 3.2 4.8 0.00 0.00 0.00 77 1013.8
20260508003001 12 135 1.6 3.2 0.00 0.00 0.00 77 1013.8
20260508001501 13 170 1.6 3.2 0.00 0.00 0.00 77 1014.2
20260508000001 12 227 1.6 3.2 0.00 0.00 1.63 78 1014.1
20260507234501 12 104 1.6 3.2 0.00 0.00 1.63 79 1014.4
20260507233001 11 121 8.0 9.7 0.00 0.00 1.63 85 1014.6
20260507231501 11 85 8.0 9.7 0.00 0.00 1.63 85 1014.5
20260507230001 11 82 6.4 8.0 0.00 0.00 1.63 86 1014.3
20260507224501 11 82 4.8 6.4 0.00 0.00 1.63 87 1014.3
20260507223001 12 89 6.4 6.4 0.00 0.00 1.63 83 1014.6
20260507221500 12 89 4.8 6.4 0.00 0.00 1.63 83 1014.1
20260507220001 12 93 8.0 9.7 0.00 0.18 1.63 81 1014.1
20260507214500 12 77 6.4 11.3 0.00 0.18 1.63 81 1014.0
20260507213001 12 165 6.4 6.4 0.00 0.18 1.63 84 1014.0
20260507211500 12 85 8.0 12.9 0.00 0.18 1.63 83 1013.9
20260507210001 12 30 11.3 12.9 0.00 0.18 1.63 82 1013.8
20260507204500 12 123 12.9 16.1 0.00 0.18 1.63 80 1013.6
20260507203001 12 69 9.7 9.7 0.00 0.18 1.63 84 1013.8
20260507201501 12 99 4.8 8.0 0.00 0.18 1.63 83 1013.6
20260507200000 12 76 8.0 17.7 0.00 0.18 1.63 82 1013.5
20260507194500 12 99 8.0 11.3 0.00 0.18 1.63 81 1013.3
20260507193001 12 93 6.4 16.1 0.00 0.18 1.63 81 1013.0
20260507191500 12 89 4.8 16.1 0.00 0.18 1.63 80 1012.8
20260507190002 13 80 11.3 22.5 0.00 0.18 1.63 77 1012.7
20260507184501 13 51 9.7 16.1 0.00 0.18 1.63 76 1012.6
20260507183000 13 88 11.3 25.7 0.00 0.18 1.63 74 1012.6
20260507181501 14 93 16.1 20.9 0.00 0.18 1.63 73 1012.6
20260507180001 14 118 12.9 20.9 0.00 0.18 1.63 71 1012.4
20260507174501 15 84 12.9 20.9 0.00 0.18 1.63 69 1012.5
20260507173001 15 83 9.7 25.7 0.00 0.18 1.63 67 1012.3
20260507171501 15 119 14.5 20.9 0.00 0.18 1.63 67 1012.4
20260507170000 16 95 12.9 22.5 0.00 0.18 1.63 64 1012.4
20260507164500 16 88 9.7 22.5 0.00 0.18 1.63 66 1012.3
20260507163000 16 110 6.4 14.5 0.00 0.18 1.63 66 1012.3
20260507160001 16 128 11.3 20.9 0.00 0.18 1.63 68 1012.1
20260507154501 17 93 11.3 16.1 0.00 0.18 1.63 68 1012.0
20260507153000 17 100 12.9 16.1 0.00 0.18 1.63 67 1012.2
20260507151500 17 104 4.8 14.5 0.00 0.18 1.63 65 1012.1
20260507150001 17 118 6.4 12.9 0.00 0.18 1.63 66 1012.1
20260507144501 18 80 1.6 8.0 0.00 0.18 1.63 59 1012.2
20260507143000 18 222 3.2 8.0 0.00 0.18 1.63 59 1012.3
20260507141501 18 77 3.2 9.7 0.00 0.18 1.63 60 1012.6
20260507140001 19 86 8.0 8.0 0.00 0.18 1.63 56 1012.3
20260507134500 18 4 6.4 9.7 0.00 0.18 1.63 57 1012.8
20260507133001 18 14 6.4 9.7 0.00 0.18 1.63 60 1012.9
20260507131501 17 93 3.2 4.8 0.00 0.18 1.63 61 1012.8
20260507130000 17 17 0.0 6.4 0.00 0.18 1.63 59 1013.0
20260507124500 15 311 0.0 3.2 0.00 0.18 1.63 67 1013.2
20260507123001 15 276 3.2 4.8 0.00 0.18 1.63 70 1013.3
20260507121500 15 319 1.6 4.8 0.00 0.18 1.63 68 1013.2
20260507120001 16 126 4.8 9.7 0.00 0.18 1.63 70 1013.5
20260507114500 15 57 1.6 3.2 0.00 0.18 1.63 71 1013.4
20260507113000 15 207 3.2 4.8 0.00 0.18 1.63 72 1013.5
20260507111501 13 142 4.8 6.4 0.00 0.18 1.63 77 1013.5
20260507110001 14 181 3.2 4.8 0.00 0.18 1.63 76 1013.8
20260507104500 13 238 4.8 6.4 0.00 0.18 1.63 78 1013.9
20260507103001 13 189 4.8 9.7 0.00 0.18 1.63 82 1014.0
20260507101501 13 232 6.4 11.3 0.00 0.18 1.63 81 1013.8
20260507100001 12 274 4.8 6.4 0.00 0.18 1.63 83 1014.0
20260507094500 12 238 8.0 11.3 0.00 0.18 1.63 84 1014.2
20260507093000 12 314 6.4 9.7 0.00 0.18 1.63 85 1013.8
20260507091500 12 191 4.8 9.7 0.00 0.18 1.63 87 1013.8
20260507090000 11 245 6.4 11.3 0.00 0.18 1.63 99 1013.9
20260507084501 10 273 4.8 6.4 0.00 0.18 1.63 98 1013.8
20260507083001 10 204 4.8 6.4 0.00 0.18 1.63 98 1013.7
20260507081501 10 212 4.8 9.7 0.00 0.18 1.63 98 1013.5
20260507080001 10 269 0.0 6.4 0.00 0.18 1.63 98 1013.4
20260507074500 10 155 4.8 6.4 0.00 0.18 1.63 99 1013.3
20260507073001 10 273 1.6 6.4 0.00 0.18 1.63 99 1013.4
20260507071500 10 220 3.2 4.8 0.00 0.18 1.63 99 1013.1
20260507070000 10 171 1.6 4.8 0.00 0.18 1.63 99 1013.2
20260507064500 10 306 0.0 6.4 0.00 0.18 1.63 99 1013.1
20260507063000 10 345 0.0 4.8 0.00 0.18 1.63 99 1013.0
20260507061501 10 211 3.2 8.0 0.00 0.18 1.63 99 1013.0
20260507060001 10 282 1.6 8.0 0.00 0.18 1.63 99 1012.7
20260507054500 10 254 0.0 4.8 0.00 0.18 1.63 99 1012.6
20260507053000 10 202 3.2 4.8 0.00 0.18 1.63 99 1012.2
20260507051501 10 174 3.2 4.8 0.00 0.18 1.63 99 1012.1
20260507050000 10 223 1.6 4.8 0.00 0.18 1.63 98 1011.7
20260507044501 10 142 3.2 6.4 0.00 0.18 1.63 98 1011.8
20260507043000 10 192 4.8 6.4 0.00 0.18 1.63 98 1011.7
20260507041500 10 224 3.2 9.7 0.00 0.18 1.63 97 1011.5
20260507040001 10 285 3.2 6.4 0.00 0.18 1.63 97 1011.4
20260507034500 10 204 3.2 12.9 0.00 0.18 1.63 97 1011.5
20260507033000 10 185 4.8 6.4 0.00 0.18 1.63 97 1011.4
20260507031501 10 215 11.3 14.5 0.00 0.18 1.63 96 1011.3